This is the latest recevied weather packets stored in our database for station/object ED3YAB-7. If no packets are shown the sender has not sent any weather packets the latest 10 day(s).
| Time | Temp. | Humidity | Pressure | Rain* | Wind** | Luminosity | Snow |
|---|---|---|---|---|---|---|---|
| 1778189297 | 13.33° C | 61% | 1019.3 hPa | - | - | - | - |
| 1778188091 | 13.89° C | 61% | 1019.1 hPa | - | - | - | - |
| 1778186891 | 13.33° C | 60% | 1019.2 hPa | - | - | - | - |
| 1778185691 | 13.89° C | 59% | 1019 hPa | - | - | - | - |
| 1778184498 | 14.44° C | 58% | 1018.8 hPa | - | - | - | - |
| 1778184491 | 14.44° C | 58% | 1018.8 hPa | - | - | - | - |
| 1778183298 | 14.44° C | 57% | 1018.8 hPa | - | - | - | - |
| 1778183290 | 14.44° C | 57% | 1018.8 hPa | - | - | - | - |
| 1778182090 | 14.44° C | 57% | 1018.1 hPa | - | - | - | - |
| 1778179690 | 15.56° C | 54% | 1017.8 hPa | - | - | - | - |
| 1778178490 | 16.67° C | 50% | 1017.4 hPa | - | - | - | - |
| 1778177297 | 18.33° C | 46% | 1017.2 hPa | - | - | - | - |
| 1778177290 | 18.33° C | 46% | 1017.2 hPa | - | - | - | - |
| 1778176090 | 20° C | 43% | 1016.9 hPa | - | - | - | - |
| 1778174897 | 18.89° C | 44% | 1016.9 hPa | - | - | - | - |
| 1778174889 | 18.89° C | 44% | 1016.9 hPa | - | - | - | - |
| 1778173689 | 20° C | 42% | 1016.7 hPa | - | - | - | - |
| 1778171301 | 20.56° C | 40% | 1016.5 hPa | - | - | - | - |
| 1778171289 | 20.56° C | 40% | 1016.5 hPa | - | - | - | - |
| 1778170951 | 20.56° C | 40% | 1016.5 hPa | - | - | - | - |
| 1778170951 | 20.56° C | 40% | 1016.5 hPa | - | - | - | - |
| 1778168554 | 20° C | 39% | 1016.6 hPa | - | - | - | - |
| 1778167354 | 21.11° C | 36% | 1016.4 hPa | - | - | - | - |
| 1778164954 | 21.67° C | 35% | 1016.7 hPa | - | - | - | - |
| 1778163744 | 31.11° C | 23% | 1016.8 hPa | - | - | - | - |
* Rain since midnight (hover to see other rain measurements)
** Current wind speed in m/s (hover to see current wind gust speed)